Printer-friendly version

IAU Minor Planet Center

Minor Planet Center

MPEC 2004-J03 : 2004 HE62

The following Minor Planet Electronic Circular may be linked-to from your own Web pages, but must not otherwise be redistributed electronically.


Read MPEC 2004-J02 Read MPEC 2004-J04


M.P.E.C. 2004-J03                                Issued 2004 May 1, 13:54 UT

     The Minor Planet Electronic Circulars contain information on unusual
         minor planets and routine data on comets.  They are published
   on behalf of Commission 20 of the International Astronomical Union by the
          Minor Planet Center, Smithsonian Astrophysical Observatory,
                          Cambridge, MA 02138, U.S.A.

         Supported in part by the Steven and Michele Kirsch Foundation
             Prepared using the Tamkin Foundation Computer Network

                              MPC@CFA.HARVARD.EDU
          URL http://cfa-www.harvard.edu/iau/mpc.html  ISSN 1523-6714

                                   2004 HE62

Observations:
     K04H62E* C2004 04 26.65655 20 41 10.28 -49 08 09.1          19.0 R EJ003E12
     K04H62E  C2004 04 26.66678 20 41 12.82 -49 08 00.8          18.7 R EJ003E12
     K04H62E  C2004 04 26.67700 20 41 15.28 -49 07 53.4          18.6 R EJ003E12
     K04H62E  C2004 04 26.68721 20 41 17.79 -49 07 45.4          18.8 R EJ003E12
     K04H62E  C2004 04 26.76560 20 41 36.62 -49 06 43.6          18.9 R EJ003E12
     K04H62E  C2004 04 26.79180 20 41 42.90 -49 06 22.8          18.5 R EJ003E12
     K04H62E  C2004 04 26.79756 20 41 44.26 -49 06 17.1          18.9 R EJ003E12
     K04H62E  C2004 04 26.80337 20 41 45.65 -49 06 12.5          18.9 R EJ003E12
     K04H62E  C2004 04 26.81402 20 41 48.16 -49 06 04.0          18.8 R EJ003E12
     K04H62E  C2004 04 26.81516 20 41 48.50 -49 06 03.4          18.7 R EJ003E12
     K04H62E  C2004 04 26.81744 20 41 49.02 -49 06 01.5          18.4 R EJ003E12
     K04H62E 1C2004 04 30.66025 20 57 23.952-48 07 56.98         19.1 R EJ003413
     K04H62E 1C2004 04 30.66211 20 57 24.410-48 07 55.10         19.2 R EJ003413
     K04H62E 1C2004 04 30.66396 20 57 24.841-48 07 53.50         19.4 R EJ003413
     K04H62E  C2004 04 30.75290 20 57 46.08 -48 06 28.1          20.2 V EJ003428
     K04H62E 1C2004 04 30.81883 20 58 01.763-48 05 22.87         19.4 R EJ003413
     K04H62E 1C2004 04 30.82068 20 58 02.218-48 05 21.09         19.4 R EJ003413

Observer details:
413 Siding Spring.  Observer R. H. McNaught.  1.0-m f/8 reflector + CCD.
428 Reedy Creek.  Observer J. Broughton.  0.51-m f/3.6 reflector + CCD.
E12 Siding Spring Survey.  Observers R. H. McNaught, S. Larson, e. al.  0.5-m
    Uppsala Schmidt + CCD.

Orbital elements:
2004 HE62
Epoch 2004 Apr. 25.0 TT = JDT 2453120.5                 MPC
M 336.47485              (2000.0)            P               Q
n   0.26503023     Peri.   24.44370     +0.80093248     +0.48190662
a   2.4003382      Node   301.98729     -0.59477624     +0.57204432
e   0.5480376      Incl.   24.76909     -0.06890847     +0.66372533
P   3.72           H   17.0           G   0.15
From 17 observations 2004 Apr. 26-30.

Ephemeris:
2004 HE62                a,e,i = 2.40, 0.55, 25                  q = 1.0849
Date    TT    R. A. (2000) Decl.     Delta      r     Elong.  Phase     V
2004 04 25    20 34.41   -49 29.7    0.994    1.490    96.3    42.2    19.5
2004 05 05    21 14.80   -46 48.7    0.876    1.420    97.5    44.8    19.2
2004 05 15    21 53.85   -42 43.0    0.766    1.353    98.2    47.7    18.9
2004 05 25    22 30.80   -36 53.2    0.668    1.290    98.1    51.0    18.6
2004 06 04    23 05.41   -28 55.1    0.582    1.232    97.3    54.8    18.3
2004 06 14    23 37.90   -18 26.8    0.513    1.181    95.6    58.8    18.0
2004 06 24    00 08.78   -05 28.7    0.466    1.140    92.9    63.0    17.9
2004 07 04    00 38.87   +09 08.0    0.446    1.109    89.8    66.5    17.8
2004 07 14    01 09.18   +23 40.1    0.453    1.090    86.9    68.6    17.9
2004 07 24    01 40.48   +36 26.5    0.483    1.085    84.8    68.8    18.0
2004 08 03    02 13.36   +46 41.7    0.527    1.094    84.0    67.3    18.2
2004 08 13    02 47.83   +54 30.8    0.577    1.115    84.3    64.7    18.3
2004 08 23    03 22.85   +60 18.5    0.627    1.149    85.7    61.4    18.5
2004 09 02    03 56.47   +64 32.8    0.672    1.193    88.1    57.7    18.6
2004 09 12    04 25.75   +67 39.4    0.710    1.246    91.4    53.9    18.7
2004 09 22    04 46.93   +69 57.8    0.740    1.305    95.7    49.9    18.8
2004 10 02    04 56.25   +71 39.8    0.764    1.369   100.9    45.9    18.8
2004 10 12    04 50.40   +72 46.1    0.783    1.437   106.9    41.6    18.9
2004 10 22    04 28.58   +73 01.9    0.800    1.507   113.7    37.2    18.9
2004 11 01    03 56.36   +72 04.1    0.820    1.579   120.8    32.7    18.9
2004 11 11    03 24.30   +69 39.2    0.848    1.651   127.7    28.3    19.0
2004 11 21    03 00.82   +65 57.3    0.889    1.724   133.4    24.6    19.1
2004 12 01    02 47.92   +61 28.8    0.947    1.797   136.6    22.1    19.2
2004 12 11    02 43.69   +56 46.4    1.025    1.868   136.7    21.2    19.4
2004 12 21    02 45.75   +52 16.5    1.125    1.939   133.7    21.5    19.7
2004 12 31    02 52.16   +48 15.7    1.244    2.009   128.5    22.5    20.1
2005 01 10    03 01.53   +44 50.3    1.381    2.078   122.1    23.6    20.4
2005 01 20    03 12.99   +42 00.4    1.535    2.146   115.1    24.5    20.7
2005 01 30    03 25.93   +39 42.5    1.700    2.212   107.9    25.1    21.0
2005 02 09    03 39.93   +37 51.4    1.875    2.276   100.8    25.2    21.3
2005 02 19    03 54.72   +36 21.8    2.057    2.339    93.7    24.9    21.6
2005 03 01    04 10.06   +35 08.8    2.243    2.401    86.8    24.3    21.8
2005 03 11    04 25.81   +34 08.0    2.431    2.461    80.0    23.4    22.0

Timothy B. Spahr             (C) Copyright 2004 MPC           M.P.E.C. 2004-J03

Read MPEC 2004-J02 Read MPEC 2004-J04


Our Web policy. Index to the CBAT/MPC/ICQ pages.


Valid HTML 4.01!